Location: Grand Rapids
(42.9630°N, 85.6680°W)
Time: 01:44:59
(UTC-04:00)

A-11 Canister half - Pass Details

Date: 08 June 2024
Orbit: 1524 x 1684 km, 47.3° (Epoch: 21 June)

Event Time Altitude Azimuth Distance (km) Brightness Sun altitude
Rises 01:08:36 0° 295° (WNW) 4,712 12.0 -23.7°
Reaches altitude 10° 01:11:48 10° 290° (WNW) 3,743 11.3 -23.8°
Maximum altitude 01:20:32 44° 222° (SW) 2,095 9.4 -24.0°
Enters shadow 01:23:01 37° 189° (S) 2,286 9.4 -24.0°
Drops below altitude 10° 01:29:32 10° 155° (SSE) 3,845 - -24.1°
Sets 01:32:53 0° 149° (SSE) 4,851 - -24.1°
